La Grande, OR

10:30 PM PST on December 05, 2019 (GMT -0800)
La Grande-Union County

Weather History for KLGD - September, 2019

Change the Weather History Date:

Thursday, September 26, 2019

  Actual Average Record
Temperature  
Mean Temperature 51 °F -  
Max Temperature 69 °F 71 °F 91 °F (1974)
Min Temperature 36 °F 37 °F 26 °F (1996)
Degree Days  
Heating Degree Days 14    
Growing Degree Days 1 (Base 50)    
Moisture  
Dew Point 43 °F    
Average Humidity 68    
Maximum Humidity 89    
Minimum Humidity 40    
Precipitation  
Precipitation 0.02 in - - ()
Sea Level Pressure  
Sea Level Pressure 30.07 in    
Wind  
Wind Speed 4 mph (NE)    
Max Wind Speed 14 mph    
Max Gust Speed -    
Visibility 10 miles    
Events Rain    
Averages and records for this station are not official NWS values.
T = Trace of Precipitation, MM = Missing Value Source: NWS Daily Summary

Daily Weather History Graph

Daily Weather History Graph

Search for Another Location

Airport or City:

Astronomy

Sep. 26, 2019 Rise Set
Actual Time 6:43 AM PDT 6:42 PM PDT
Civil Twilight 6:14 AM PDT 7:11 PM PDT
Nautical Twilight 5:39 AM PDT 7:45 PM PDT
Astronomical Twilight 5:04 AM PDT 8:20 PM PDT
Moon 3:44 AM PDT (9/26) 6:07 PM PDT (9/26)
Length of Visible Light 12h 57m
Length of Day
11h 58m
Waning Crescent, 6% of the Moon is Illuminated
Sep 26
Waning Crescent
Sep 28
New
Oct 5
First Quarter
Oct 13
Full
Oct 21
Last Quarter

Hourly Weather History & Observations

Time (PDT) Temp. Windchill Dew Point Humidity Pressure Visibility Wind Dir Wind Speed Gust Speed Precip Events Conditions
12:56 AM 44.1 °F 42.5 °F 35.1 °F 71% 30.48 in 10.0 mi SE 3.5 mph - N/A   Clear
1:56 AM 45.0 °F - 36.0 °F 71% 30.47 in 10.0 mi Calm Calm - N/A   Clear
2:56 AM 43.0 °F - 35.1 °F 74% 30.44 in 10.0 mi Calm Calm - N/A   Clear
3:56 AM 41.0 °F - 35.1 °F 79% 30.42 in 10.0 mi Calm Calm - N/A   Clear
4:56 AM 39.9 °F 36.7 °F 34.0 °F 79% 30.40 in 10.0 mi South 4.6 mph - N/A   Clear
5:56 AM 36.0 °F 31.1 °F 33.1 °F 89% 30.38 in 10.0 mi SE 5.8 mph - N/A   Clear
6:56 AM 37.9 °F - 34.0 °F 86% 30.37 in 10.0 mi Calm Calm - N/A   Clear
7:56 AM 46.0 °F 44.8 °F 37.9 °F 73% 30.37 in 10.0 mi NNE 3.5 mph - N/A   Clear
9:56 AM 57.0 °F - 39.0 °F 51% 29.93 in 10.0 mi Calm Calm - N/A   Partly Cloudy
10:38 AM 60.8 °F - 41.0 °F 48% 29.93 in 1.0 mi West 3.5 mph - 0.02 in   Haze
10:46 AM 62.6 °F - 39.2 °F 42% 29.93 in 10.0 mi West 5.8 mph - 0.02 in   Partly Cloudy
10:56 AM 63.0 °F - 37.9 °F 40% 29.94 in - Calm Calm - 0.02 in   Mostly Cloudy
11:56 AM 66.0 °F - 41.0 °F 40% 29.92 in 10.0 mi ENE 5.8 mph - N/A   Overcast
12:56 PM 66.9 °F - 46.0 °F 47% 29.91 in 10.0 mi NNW 8.1 mph - N/A   Overcast
1:56 PM 62.1 °F - 51.1 °F 67% 29.91 in 10.0 mi NW 13.8 mph - 0.00 in Rain Light Rain
2:56 PM 59.0 °F - 51.1 °F 75% 29.92 in 10.0 mi Calm Calm - 0.00 in   Overcast
3:56 PM 59.0 °F - 52.0 °F 78% 29.91 in 10.0 mi SE 6.9 mph - 0.00 in   Overcast
4:56 PM 59.0 °F - 52.0 °F 78% 29.91 in 10.0 mi SE 10.4 mph - N/A   Mostly Cloudy
5:56 PM 60.1 °F - 52.0 °F 75% 29.89 in 10.0 mi ESE 8.1 mph - N/A   Overcast
6:56 PM 57.9 °F - 51.1 °F 78% 29.89 in 10.0 mi Calm Calm - N/A   Mostly Cloudy
7:56 PM 55.0 °F - 48.9 °F 80% 29.89 in 10.0 mi Calm Calm - N/A   Clear
8:56 PM 55.0 °F - 48.9 °F 80% 29.90 in 10.0 mi Variable 3.5 mph - N/A   Mostly Cloudy
9:56 PM 57.9 °F - 48.0 °F 70% 29.88 in 10.0 mi North 8.1 mph - N/A   Scattered Clouds
10:56 PM 57.9 °F - 46.0 °F 65% 29.88 in 10.0 mi NE 13.8 mph - N/A   Overcast
11:56 PM 55.0 °F - 45.0 °F 69% 29.90 in 10.0 mi NNW 5.8 mph - N/A   Overcast